PSLV R/B

Satellite information

Favourite Embed

Satellite Type and Status

ROCKET BODYIN ORBIT

Key statistics

Satellite PSLV R/B at a glance.

Uptime

3967

Days in orbit

Revolutions

≈ 14.8

Per day

Orbit

SSO

Sun Synchronous Orbit

Inclination

98.3

Latest

Satellite identification and parameters

Extended collection of information and parameters for PSLV R/B.

Object identification

Identified? True

Debris? False

Object name: PSLV R/B

International designator: 2014-034F

Object number (NORAD): 40058

Object ID (CCSDS): 40058

Country: INDIA (IND)

Current information (Y/N): Y

RCS size: LARGE

Orbital parameters

Period: 97.077 minutes

Inclination: 98.3284 deg

SMA: 6996.898 km

Apoapsis: 632.892 km

Periapsis: 604.635 km

RAAN: 329.8094 deg

Eccentricy: 0.0020193

Argument of periapsis: 194.6975 deg

Mean anomaly: 165.3653 deg

Mean motion: 14.83352658 rev/day

Mean motion (dot): 0.00001212 rev/day2

B* drag term: 0.00015459 1/REarth

Two-line elements (TLE)

Creation date: May 10, 2025, 2:32 a.m.

Reference frame: TEME

Reference center: EARTH

Epoch: May 9, 2025, 12:52 p.m. UTC

TLE line 0: 0 PSLV R/B

TLE line 1: 1 40058U 14034F 25129.53669461 .00001212 00000-0 15459-3 0 9991

TLE line 2: 2 40058 98.3284 329.8094 0020193 194.6975 165.3653 14.83352658586210

Live tracking on map

Real-time ground track for satellite PSLV R/B.

In-orbit conjunctions

A list of the most updated potential collisions computed for object PSLV R/B.

Target Orbit TCA Probability of collision Miss distance Type
CZ-4B R/B SSO 2025-01-20 03:21:37 0.001366428 832.0 (m) ROCKET BODY
COSMOS 2251 DEB LEO 2024-08-11 13:24:32 0.0001063178 725.0 (m) DEBRIS

Associated space launch

PSLV R/B was lifted into orbit during the mission ‘PSLV-CA | SPOT-7, CanX-4, CanX-5, AISat, VELOX-I’, on board a PSLV space rocket.

The launch took place on June 30, 2014, 4:22 a.m. from Satish Dhawan Space Centre First Launch Pad.

For more information about the launch, click the button.

Launch to space PSLV-CA | SPOT-7, CanX-4, CanX-5, AISat, VELOX-I
PSLV-CA | SPOT-7, CanX-4, CanX-5, AISat, VELOX-I

Agency: N/A

Status: Launch Successful

Launch date: June 30, 2014, 4:22 a.m. UTC

Rocket: PSLV

Launch pad: Satish Dhawan Space Centre First Launch Pad

Location: Satish Dhawan Space Centre, India

...

Latest news about this satellite

There are no fresh news available about this satellite. Check back as we update our databases every day.


Newsletter sign-up

Weekly statistics, charts and insights to help you stay on top of the space industry.